Weather History for K3R7 - October, 2012

Change the Weather History Date:

Wednesday, October 17, 2012

  Actual Average (KLCH) Record (KLCH)
Temperature  
Mean Temperature 72 °F 70 °F  
Max Temperature 83 °F 81 °F 93 °F (1915)
Min Temperature 61 °F 59 °F 40 °F (1943)
Degree Days  
Heating Degree Days 0 1  
Month to date heating degree days 8  
Since 1 July heating degree days 9  
Cooling Degree Days 7 6  
Month to date cooling degree days 130  
Year to date cooling degree days 2670  
Growing Degree Days 22 (Base 50)    
Moisture  
Dew Point 68 °F    
Average Humidity 87    
Maximum Humidity 100    
Minimum Humidity 64    
Precipitation  
Precipitation 0.00 in 0.18 in 2.48 in (1928)
Month to date precipitation 2.45  
Year to date precipitation 45.93  
Snow  
Snow - 0.00 in 0.00 in ()
Month to date snowfall 0.0  
Since 1 July snowfall 0.0  
Since 1 September snowfall 0.0  
Snow Depth -    
Sea Level Pressure  
Sea Level Pressure 29.76 in    
Wind  
Wind Speed 5 mph ()    
Max Wind Speed 16 mph    
Max Gust Speed 25 mph    
Visibility 8.4 miles    
Events      
T = Trace of Precipitation, MM = Missing Value Source: Averaged Metar Reports

Daily Weather History Graph

Daily Weather History Graph

Search for Another Location

Airport or City:

Trip Planner

Search our weather history database for the weather conditions in past years. The results will help you decide how hot, cold, wet, or windy it might be!

Date:

Astronomy

Oct. 17, 2012 Rise Set
Actual Time 7:14 AM CDT 6:36 PM CDT
Civil Twilight 6:50 AM CDT 7:01 PM CDT
Nautical Twilight 6:22 AM CDT 7:29 PM CDT
Astronomical Twilight 5:54 AM CDT 7:56 PM CDT
Moon 9:36 AM CDT (10/17) 8:26 PM CDT (10/17)
Length of Visible Light 12h 10m
Length of Day
11h 22m
Waxing Crescent, 7% of the Moon is Illuminated
Oct 17
Waxing Crescent
Oct 21
First Quarter
Oct 29
Full
Nov 6
Last Quarter
Nov 13
New

Hourly Weather History & Observations

Time (CDT) Temp. Heat Index Dew Point Humidity Pressure Visibility Wind Dir Wind Speed Gust Speed Precip Events Conditions
12:15 AM 67.1 °F - 66.2 °F 97% 29.83 in 7.0 mi WNW 5.8 mph - N/A   Overcast
12:35 AM 65.8 °F - 65.1 °F 98% 29.83 in 7.0 mi WNW 6.9 mph - N/A   Overcast
12:55 AM 65.3 °F - 64.4 °F 97% 29.83 in 7.0 mi WNW 3.5 mph - N/A   Overcast
1:15 AM 64.4 °F - 63.7 °F 98% 29.83 in 7.0 mi Calm Calm - N/A   Scattered Clouds
1:35 AM 64.4 °F - 63.5 °F 97% 29.82 in 7.0 mi Calm Calm - N/A   Clear
1:55 AM 63.7 °F - 63.0 °F 97% 29.82 in 7.0 mi Calm Calm - N/A   Clear
2:15 AM 63.1 °F - 62.8 °F 99% 29.81 in 7.0 mi Calm Calm - N/A   Clear
2:35 AM 62.6 °F - 62.1 °F 98% 29.81 in 5.0 mi Calm Calm - N/A   Clear
2:55 AM 62.4 °F - 62.1 °F 99% 29.80 in 7.0 mi Calm Calm - N/A   Clear
3:15 AM 61.7 °F - 61.3 °F 99% 29.80 in 5.0 mi ENE 3.5 mph - N/A   Clear
3:35 AM 61.7 °F - 61.3 °F 99% 29.79 in 7.0 mi ENE 4.6 mph - N/A   Clear
3:55 AM 61.7 °F - 61.2 °F 98% 29.79 in 7.0 mi ENE 4.6 mph - N/A   Clear
4:15 AM 61.9 °F - 61.7 °F 99% 29.79 in 7.0 mi Calm Calm - N/A   Clear
4:35 AM 61.7 °F - 61.3 °F 99% 29.79 in 7.0 mi ENE 3.5 mph - N/A   Clear
4:55 AM 61.9 °F - 61.7 °F 99% 29.79 in 7.0 mi Calm Calm - N/A   Scattered Clouds
5:15 AM 61.7 °F - 61.7 °F 100% 29.80 in 4.0 mi East 3.5 mph - N/A   Mostly Cloudy
5:35 AM 62.6 °F - 62.4 °F 99% 29.81 in 5.0 mi East 3.5 mph - N/A   Mostly Cloudy
5:55 AM 62.6 °F - 62.6 °F 100% 29.80 in 4.0 mi Calm Calm - N/A   Overcast
6:15 AM 63.0 °F - 62.6 °F 99% 29.80 in 5.0 mi East 3.5 mph - N/A   Mostly Cloudy
6:35 AM 63.3 °F - 63.0 °F 99% 29.81 in 5.0 mi East 3.5 mph - N/A   Mostly Cloudy
6:55 AM 63.7 °F - 63.5 °F 99% 29.81 in 5.0 mi East 4.6 mph - N/A   Overcast
7:15 AM 63.9 °F - 63.5 °F 99% 29.81 in 5.0 mi East 4.6 mph - N/A   Overcast
7:35 AM 64.0 °F - 63.7 °F 99% 29.81 in 4.0 mi ESE 5.8 mph - N/A   Overcast
7:55 AM 64.6 °F - 64.2 °F 99% 29.81 in 5.0 mi ESE 5.8 mph - N/A   Overcast
8:15 AM 65.8 °F - 64.8 °F 96% 29.81 in 7.0 mi ESE 5.8 mph - N/A   Overcast
8:35 AM 66.9 °F - 65.1 °F 94% 29.82 in 7.0 mi ESE 4.6 mph - N/A   Overcast
8:55 AM 68.2 °F - 66.0 °F 93% 29.82 in 10.0 mi SE 4.6 mph - N/A   Overcast
9:15 AM 69.3 °F - 66.6 °F 91% 29.82 in 10.0 mi SE 4.6 mph - N/A   Scattered Clouds
9:35 AM 71.1 °F - 67.3 °F 88% 29.82 in 10.0 mi SSE 6.9 mph - N/A   Scattered Clouds
9:55 AM 72.5 °F - 67.5 °F 84% 29.81 in 10.0 mi SSE 10.4 mph - N/A   Scattered Clouds
10:15 AM 75.4 °F - 67.6 °F 77% 29.82 in 10.0 mi SSE 6.9 mph - N/A   Scattered Clouds
10:35 AM 76.6 °F - 67.6 °F 74% 29.81 in 10.0 mi SSE 11.5 mph - N/A   Clear
10:55 AM 78.1 °F - 67.1 °F 69% 29.81 in 10.0 mi South 9.2 mph - N/A   Clear
11:15 AM 79.2 °F - 66.9 °F 66% 29.80 in 10.0 mi SSE 11.5 mph 19.6 mph N/A   Clear
11:35 AM 80.1 °F 82.3 °F 67.1 °F 64% 29.80 in 10.0 mi South 11.5 mph 18.4 mph N/A   Clear
11:55 AM 81.0 °F 83.8 °F 68.4 °F 65% 29.79 in 10.0 mi South 12.7 mph 19.6 mph N/A   Scattered Clouds
12:15 PM 81.9 °F 85.0 °F 68.7 °F 64% 29.78 in 10.0 mi South 12.7 mph 19.6 mph N/A   Scattered Clouds
12:35 PM 82.2 °F 85.5 °F 69.1 °F 64% 29.78 in 10.0 mi South 13.8 mph 20.7 mph N/A   Scattered Clouds
12:55 PM 81.5 °F 84.8 °F 69.3 °F 66% 29.76 in 10.0 mi South 15.0 mph 19.6 mph N/A   Mostly Cloudy
1:15 PM 81.5 °F 85.1 °F 70.2 °F 68% 29.75 in 10.0 mi SSW 10.4 mph 20.7 mph N/A   Overcast
1:35 PM 82.6 °F 86.8 °F 70.7 °F 67% 29.74 in 10.0 mi SSW 9.2 mph 19.6 mph N/A   Overcast
1:55 PM 83.3 °F 88.4 °F 71.6 °F 68% 29.73 in 10.0 mi SSW 13.8 mph 24.2 mph N/A   Mostly Cloudy
2:15 PM 82.4 °F 87.0 °F 71.4 °F 69% 29.72 in 10.0 mi SSW 11.5 mph 21.9 mph N/A   Mostly Cloudy
2:35 PM 82.4 °F 87.0 °F 71.4 °F 69% 29.71 in 10.0 mi SSW 11.5 mph 25.3 mph N/A   Mostly Cloudy
2:55 PM 82.6 °F 87.3 °F 71.4 °F 69% 29.70 in 10.0 mi SSW 11.5 mph 25.3 mph N/A   Mostly Cloudy
3:15 PM 82.0 °F 86.5 °F 71.2 °F 70% 29.70 in 10.0 mi SSW 11.5 mph 19.6 mph N/A   Mostly Cloudy
3:35 PM 81.5 °F 85.9 °F 71.6 °F 72% 29.70 in 10.0 mi SSW 11.5 mph 16.1 mph N/A   Mostly Cloudy
3:55 PM 80.6 °F 84.6 °F 71.8 °F 74% 29.70 in 10.0 mi South 11.5 mph 17.3 mph N/A   Overcast
4:15 PM 82.6 °F 87.3 °F 71.4 °F 69% 29.70 in 10.0 mi SSW 16.1 mph 20.7 mph N/A   Mostly Cloudy
4:35 PM 82.0 °F 85.9 °F 70.2 °F 67% 29.69 in 10.0 mi SW 13.8 mph 21.9 mph N/A   Scattered Clouds
4:55 PM 82.8 °F 87.2 °F 70.9 °F 67% 29.69 in 10.0 mi SW 10.4 mph 24.2 mph N/A   Scattered Clouds
5:15 PM 82.0 °F 86.7 °F 71.8 °F 71% 29.69 in 10.0 mi SSW 12.7 mph 20.7 mph N/A   Scattered Clouds
5:35 PM 81.1 °F 85.4 °F 71.8 °F 73% 29.68 in 10.0 mi SSW 10.4 mph 21.9 mph N/A   Scattered Clouds
5:55 PM 80.6 °F 84.9 °F 72.5 °F 76% 29.68 in 10.0 mi SSW 12.7 mph 20.7 mph N/A   Mostly Cloudy
6:15 PM 79.5 °F - 72.9 °F 80% 29.69 in 10.0 mi SSW 9.2 mph 17.3 mph N/A   Scattered Clouds
6:35 PM 78.3 °F - 73.2 °F 84% 29.69 in 10.0 mi South 6.9 mph - N/A   Scattered Clouds
6:55 PM 77.5 °F - 73.4 °F 87% 29.69 in 10.0 mi South 6.9 mph - N/A   Mostly Cloudy
7:15 PM 77.0 °F - 73.4 °F 89% 29.69 in 10.0 mi South 4.6 mph - N/A   Scattered Clouds
7:35 PM 76.5 °F - 73.4 °F 90% 29.70 in 10.0 mi South 4.6 mph - N/A   Scattered Clouds
7:55 PM 76.1 °F - 73.4 °F 91% 29.71 in 10.0 mi South 5.8 mph - N/A   Mostly Cloudy
8:15 PM 75.9 °F - 73.4 °F 92% 29.71 in 10.0 mi South 5.8 mph - N/A   Overcast
8:35 PM 75.6 °F - 73.4 °F 93% 29.71 in 10.0 mi South 6.9 mph - N/A   Mostly Cloudy
8:55 PM 75.4 °F - 73.4 °F 94% 29.72 in 10.0 mi South 4.6 mph - N/A   Clear
9:15 PM 75.2 °F - 73.6 °F 95% 29.72 in 10.0 mi South 4.6 mph - N/A   Clear
9:35 PM 75.2 °F - 73.6 °F 95% 29.73 in 10.0 mi South 3.5 mph - N/A   Clear
9:55 PM 74.8 °F - 73.6 °F 96% 29.73 in 10.0 mi South 3.5 mph - N/A   Mostly Cloudy
10:15 PM 74.8 °F - 73.8 °F 96% 29.74 in 10.0 mi South 4.6 mph - N/A   Overcast
10:35 PM 74.7 °F - 73.8 °F 97% 29.74 in 7.0 mi South 3.5 mph - N/A   Scattered Clouds
10:55 PM 74.5 °F - 73.8 °F 98% 29.74 in 7.0 mi Calm Calm - N/A   Mostly Cloudy
11:15 PM 74.3 °F - 73.6 °F 98% 29.75 in 7.0 mi SSW 3.5 mph - N/A   Overcast
11:35 PM 74.3 °F - 73.6 °F 98% 29.74 in 7.0 mi South 4.6 mph - N/A   Mostly Cloudy
11:55 PM 74.3 °F - 73.6 °F 98% 29.73 in 7.0 mi SSW 3.5 mph - N/A   Mostly Cloudy